CW2654 Weather Reports


Display with metric or nautical units.
time (UTC)temp
F
wind
direction
speed
MPH
gust
MPH
rain 1hr
in
rain 24hr
in
rain mn
in
humidity
%
barometer
mb
20260901191602 61 0 0.0 3.0 0.00 0.00 0.00 83 1012.3
20260901190058 61 0 0.0 4.0 0.00 0.00 0.00 82 1012.4
20260901184606 61 271 0.0 5.0 0.00 0.00 0.00 82 1012.5
20260901183110 61 0 0.0 5.0 0.00 0.00 0.00 82 1012.4
20260901181602 61 320 0.0 3.0 0.00 0.00 0.00 83 1012.5
20260901180058 60 0 0.0 3.0 0.00 0.00 0.00 87 1012.6
20260901174556 59 0 0.0 2.0 0.00 0.00 0.00 87 1012.5
20260901173102 58 0 0.0 1.0 0.00 0.00 0.00 91 1012.6
20260901171602 58 106 0.0 4.0 0.00 0.00 0.00 90 1012.6
20260901170108 58 0 0.0 2.0 0.00 0.00 0.00 90 1012.5
20260901164600 58 0 0.0 6.0 0.00 0.00 0.00 90 1012.5
20260901163103 57 150 0.0 5.0 0.00 0.00 0.00 90 1012.4
20260901161615 57 179 0.0 6.0 0.00 0.00 0.00 88 1012.4
20260901160103 57 0 0.0 6.0 0.00 0.00 0.00 89 1012.4
20260901154619 57 105 0.0 3.0 0.00 0.00 0.00 89 1012.4
20260901153108 57 109 0.0 4.0 0.00 0.00 0.00 89 1012.3
20260901151612 56 108 0.0 2.0 0.00 0.00 0.00 90 1012.3
20260901150110 56 0 1.0 7.0 0.00 0.00 0.00 90 1012.2
20260901144602 56 0 0.0 4.0 0.00 0.00 0.00 91 1012.2
20260901143101 56 94 0.0 4.0 0.00 0.00 0.00 90 1012.1
20260901141605 56 0 0.0 6.0 0.00 0.00 0.00 90 1012.2
20260901140100 56 117 1.0 4.0 0.00 0.00 0.00 89 1012.2
20260901134601 56 100 0.0 4.0 0.00 0.00 0.00 89 1012.1
20260901133100 56 0 0.0 2.0 0.00 0.00 0.00 89 1011.9
20260901131604 56 0 0.0 2.0 0.00 0.00 0.00 89 1011.9
20260901130105 56 0 0.0 2.0 0.00 0.00 0.00 89 1011.9
20260901124559 56 0 0.0 4.0 0.00 0.00 0.00 89 1011.8
20260901123058 56 0 0.0 2.0 0.00 0.00 0.00 89 1012.0
20260901121613 56 105 0.0 3.0 0.00 0.00 0.00 89 1011.9
20260901120112 56 0 0.0 0.0 0.00 0.00 0.00 89 1011.8
20260901114606 56 0 0.0 3.0 0.00 0.00 0.00 89 1012.0
20260901113102 56 0 1.0 7.0 0.00 0.00 0.00 89 1011.9
20260901111606 56 0 0.0 4.0 0.00 0.00 0.00 89 1011.7
20260901104559 57 0 0.0 3.0 0.00 0.00 0.00 87 1011.7
20260901103107 57 0 0.0 7.0 0.00 0.00 0.00 86 1011.6
20260901101601 58 0 1.0 6.0 0.00 0.00 0.00 85 1011.5
20260901100101 58 163 1.0 8.0 0.00 0.00 0.00 85 1011.5
20260901094604 58 0 0.0 4.0 0.00 0.00 0.00 85 1011.3
20260901093105 58 0 0.0 5.0 0.00 0.00 0.00 84 1011.2
20260901091615 58 0 1.0 6.0 0.00 0.00 0.00 84 1011.0
20260901090104 59 101 0.0 3.0 0.00 0.00 0.00 84 1011.0
20260901084608 59 0 0.0 7.0 0.00 0.00 0.00 83 1010.9
20260901083107 60 0 0.0 3.0 0.00 0.00 0.00 81 1011.0
20260901081559 60 121 1.0 7.0 0.00 0.00 0.00 80 1011.0
20260901080106 60 205 1.0 4.0 0.00 0.00 0.00 80 1010.9
20260901074634 59 0 0.0 6.0 0.00 0.00 0.00 82 1010.8
20260901073108 60 0 0.0 4.0 0.00 0.00 0.00 80 1010.5
20260901071600 62 0 0.0 6.0 0.00 0.00 0.00 77 1010.5
20260901064607 63 0 0.0 3.0 0.00 0.00 0.00 75 1010.1
20260901063102 63 0 1.0 7.0 0.00 0.00 0.00 74 1009.9
20260901061601 62 0 0.0 6.0 0.00 0.00 0.00 76 1009.7
20260901054600 63 0 0.0 6.0 0.00 0.00 0.00 75 1009.5
20260901053105 60 0 1.0 4.0 0.00 0.00 0.00 80 1009.3
20260901051600 60 100 0.0 2.0 0.00 0.00 0.00 83 1009.3
20260901050058 61 104 0.0 2.0 0.00 0.00 0.00 83 1009.1
20260901044605 61 105 1.0 2.0 0.00 0.00 0.00 82 1009.0
20260901043102 62 101 0.0 2.0 0.00 0.00 0.00 81 1009.1
20260901041601 63 0 0.0 3.0 0.00 0.00 0.00 81 1008.9
20260901040058 64 0 0.0 1.0 0.00 0.00 0.00 81 1008.7
20260901034602 65 0 0.0 1.0 0.00 0.00 0.00 78 1008.6
20260901033102 66 0 0.0 1.0 0.00 0.00 0.00 78 1008.4
20260901031603 67 0 0.0 3.0 0.00 0.00 0.00 77 1008.3
20260901030100 68 97 1.0 6.0 0.00 0.00 0.00 75 1008.4
20260901024614 70 105 1.0 3.0 0.00 0.00 0.00 73 1008.6
20260901023101 72 113 0.0 2.0 0.00 0.00 0.00 70 1008.4
20260901021600 74 0 0.0 4.0 0.00 0.00 0.00 63 1008.4
20260901014606 75 0 0.0 1.0 0.00 0.00 0.00 64 1008.1
20260901013123 76 0 0.0 1.0 0.00 0.00 0.00 61 1008.3
20260901011559 78 0 0.0 0.0 0.00 0.00 0.00 57 1008.1
20260901010124 78 0 0.0 0.0 0.00 0.00 0.00 55 1008.0
20260901004615 79 0 0.0 1.0 0.00 0.00 0.00 53 1008.1
20260901003102 79 0 0.0 1.0 0.00 0.00 0.00 46 1008.1
20260901001601 80 0 0.0 4.0 0.00 0.00 0.00 45 1008.1
20260901000106 80 0 0.0 4.0 0.00 0.00 0.00 46 1008.1
20260831234633 80 0 0.0 3.0 0.00 0.00 0.00 47 1008.2
20260831233104 80 0 0.0 4.0 0.00 0.00 0.00 44 1008.1
20260831231602 80 234 0.0 4.0 0.00 0.00 0.00 44 1008.1
20260831230100 80 352 2.0 7.0 0.00 0.00 0.00 41 1008.1
20260831224604 81 318 1.0 6.0 0.00 0.00 0.00 43 1008.1
20260831223103 82 22 0.0 13.0 0.00 0.00 0.00 43 1008.2
20260831221601 81 0 1.0 10.0 0.00 0.00 0.00 38 1008.4
20260831220100 81 0 0.0 6.0 0.00 0.00 0.00 40 1008.5
20260831214618 81 0 1.0 9.0 0.00 0.00 0.00 35 1008.6
20260831213104 81 0 0.0 11.0 0.00 0.00 0.00 36 1008.6
20260831211602 80 304 0.0 11.0 0.00 0.00 0.00 36 1008.5
20260831210100 80 0 0.0 9.0 0.00 0.00 0.00 37 1008.5
20260831204607 80 26 0.0 10.0 0.00 0.00 0.00 41 1008.7
20260831203103 79 327 0.0 10.0 0.00 0.00 0.00 40 1008.8
20260831201615 78 352 0.0 9.0 0.00 0.00 0.00 39 1009.1
20260831200100 78 36 0.0 11.0 0.00 0.00 0.00 42 1009.3
20260831194604 77 329 0.0 5.0 0.00 0.00 0.00 43 1009.4
20260831193131 77 0 0.0 8.0 0.00 0.00 0.00 47 1009.5